Terug naar catalogus

EKRAN 1

ActiefCommunicatieGEO
NORAD 9503·PAYLOAD·🇷🇺 Russia

Gelanceerd Oct 26, 1976 vanaf Baikonur Cosmodrome

Loading…

TLE

VersSource: Space-Track

Epoch: Sep 14, 2026, 14:05 UTC

1 09503U 76107A   26257.58706106  .00000044  00000-0  00000-0 0  9991
2 09503   3.3425 268.6584 0068933 193.2037 163.3166  1.00232987199400

Volg EKRAN 1 in realtime met AllMySat

Download on the App Store